Meteo Giornale » Osservazioni meteo Italia » Falconara

ore: 17:50 - Osservazioni Meteo Falconara
Lat. 43° 37' N Lon. 13° 22' E Alt. 12 metri s.l.m.

nuvoloso Europe/Rome

19 °C

Nuvoloso

Temp. 24 Ore

13 °C

22 °C

Sud-Est

13 Km/h

Dew point 12 °C

Umidità 63 %

Visibilità  10 Km

Il sole sorge alle ore 05:34

Il sole tramonta alle ore 20:31

Data e Ora Cielo e Fenomeni T °C DP °C Um. % Pres. hPa Vis. km Vento km/h
Oggi h: 17:50 nuvoloso Nuvoloso 19 12 63 1007 10 SE 13
Oggi h: 16:50 nuvoloso Nuvoloso 18 10 59 1007 10 SE 14.8
Oggi h: 15:50 nuvoloso Nuvoloso 19 11 59 1007 10 SE 13
Oggi h: 14:50 nuvoloso Nuvoloso 22 9 43 1007 10 S/SO 16.7
Oggi h: 13:50 nuvoloso Nuvoloso 20 9 49 1007 10 S/SO 22.2
Oggi h: 12:50 poco_nuvoloso Poco Nuvoloso 21 8 43 1007 10 SO 24
Oggi h: 11:50 poco_nuvoloso Poco Nuvoloso 19 8 48 1007 10 SO 25.9
Oggi h: 10:50 poco_nuvoloso Poco Nuvoloso 19 9 52 1007 10 O/SO 31.5
Oggi h: 09:50 poco_nuvoloso Poco Nuvoloso 18 10 59 1007 10 SO 25.9
Oggi h: 08:50 poco_nuvoloso Poco Nuvoloso 17 11 67 1006 10 S/SO 11.1
Oggi h: 07:50 poco_nuvoloso Poco Nuvoloso 15 10 72 1006 10 N 5.5
Oggi h: 06:50 nuvoloso Nuvoloso 13 11 87 1005 10 N 5.5
Oggi h: 05:50 molto_nuvoloso Molto Nuvoloso 13 10 81 1005 10 N 3.7
Oggi h: 04:50 nuvoloso Nuvoloso 13 11 87 1005 10 N 3.7
Oggi h: 03:50 molto_nuvoloso Molto Nuvoloso 13 11 87 1005 10 S/SO 11.1
Oggi h: 02:50 coperto_pioggia Pioggia Debole 14 11 82 1005 10 S/SO 11.1
Oggi h: 01:50 molto_nuvoloso Molto Nuvoloso 14 11 82 1005 10 S 7.4
Oggi h: 00:50 coperto_pioggia Pioggia Debole 15 10 72 1005 10 S/SO 14.8
Ieri h: 23:50 nuvoloso Nuvoloso 15 11 76 1005 10 S/SO 14.8
Ieri h: 22:50 nuvoloso Nuvoloso 15 11 76 1005 10 SO 13
Ieri h: 21:50 nuvoloso Nuvoloso 15 12 82 1005 10 SO 7.4
Ieri h: 20:50 nuvoloso Nuvoloso 16 12 77 1004 10 O/SO 7.4
Ieri h: 19:50 nuvoloso Nuvoloso 17 12 72 1004 10 N 3.7